LiveATC.Net - Listen to live air traffic control over the Internet!
Airport/ARTCC Code
Frequency Search
(e.g., 124.400, 128.75)
Site-wide search
 


Browse Feeds
Top 50 Feeds
HF Oceanic Feeds
Coverage Map
Bad Weather Areas

LiveATC FAQ
Offer LiveATC feed
Contact LiveATC.net
Press Inquiries

LiveATC on iPhone
LiveATC on Android

LiveATC Mobile
(Mobile browser)

ATC Audio Archives
Interesting Recordings

LiveATC Forums

Home Page
About LiveATC.net
Make a Donation
Terms of Use
Privacy Policy

Canadian Air Freqs

AIRMETs/SIGMETs

FAA Airport Status
NAS Status
Arrival Demand


Server Software By:
Icecast.org
Liquidsoap

Select an area of interest:
U.S. Feeds: Class B Airports | Class C Airports | Class D/Other Airports | ARTCC (Centers)
International Feeds: Canada | Europe | Oceania | Asia | South America | North/Central America | Africa
Misc Feeds: HF Feeds
Search by ICAO/IATA airport code:   (e.g., kbos, kjfk, lax, eham, etc.)


Currently Available Live Feeds: 3100
Status Updated: Mon Jan 24 2022 06:49:38 UTC


NOTICE

Unauthorized use prohibited. See LiveATC.net Terms of Service

Africa Airport Feeds

 

FIMP Twr/App/Ctr #1 (Archives)
Plaine Magnien, Mauritius

Feed Status: UP
Listen in your browser - HTML5 player(in browser, HTML5)
Click here to listen with your own player(launches your MP3 player)

FIMP 240600Z 17007KT 9999 BKN014 SCT050 27/24 Q1013


Listeners: 0 out of 1316 total

FIMP Approach: 119.100
FIMP Tower: 118.100
FMEE Approach/Departure: 127.200
Mauritius Centre: 129.300

FIMP Twr/App/Ctr #2 (Archives)
Plaine Magnien, Mauritius

Feed Status: UP
Listen in your browser - HTML5 player(in browser, HTML5)
Click here to listen with your own player(launches your MP3 player)

FIMP 240600Z 17007KT 9999 BKN014 SCT050 27/24 Q1013


Listeners: 0 out of 1316 total

FIMP Approach: 119.100
FIMP Tower: 118.100
Mauritius Centre: 129.300

FMEP Info (Archives)
Saint-Pierre, Reunion

Feed Status: UP
Listen in your browser - HTML5 player(in browser, HTML5)
Click here to listen with your own player(launches your MP3 player)

FMEP 240600Z AUTO 11015G26KT 9999 BKN019 OVC027 27/24 Q1013 TEMPO 2500 SHRA BKN020TCU


Listeners: 0 out of 1316 total

Saint-Pierre Info: 122.400

FMMI Twr/App/Center
Antananarivo, Madagascar

Feed Status: DOWN
Offline since: 2022-01-24 06:49:05 UTC

FMMI 240600Z 10017KT 9999 FEW010 SCT020 BKN040 22/19 Q1018 NOSIG

Ivato Approach: 125.700
Ivato Tower: 120.100
Tana Control: 128.900

GOBD Gnd/Twr/App (Archives)
Dakar, Senegal

Feed Status: UP
Listen in your browser - HTML5 player(in browser, HTML5)
Click here to listen with your own player(launches your MP3 player)

GOBD 240600Z 04009KT CAVOK 24/M06 Q1012 NOSIG


Listeners: 0 out of 1316 total

Dakar Approach/Departure: 120.500
Dakar Ground: 121.800
Dakar Tower: 118.800